Location: Azat
(46.0765°N, 1.7600°E)
Time: 03:18:50
(UTC+00:00)

ERS-1 Rocket - Pass Details

Date: 09 April 2020
Orbit: 754 x 757 km, 98.5° (Epoch: 29 May)

Event Time Altitude Azimuth Distance (km) Brightness Sun altitude
Exits shadow 20:47:01 40° 84° (E) 1,104 3.5 -21.7°
Maximum altitude 20:47:32 41° 68° (ENE) 1,082 3.5 -21.8°
Drops below altitude 10° 20:52:15 10° 359° (N) 2,291 6.0 -22.4°
Sets 20:54:38 0° 353° (N) 3,220 7.0 -22.7°
